Tracking 29892 objects as of 21-Nov-2024
HD Live streaming from Space Station
objects crossing your sky now

STARLINK-4375

Track STARLINK-4375 now!
10-day predictions
STARLINK-4375 is classified as:


NORAD ID: 53192
Int'l Code: 2022-084D
Perigee: 568.4 km
Apogee: 571.9 km
Inclination: 97.7 °
Period: 95.9 minutes
Semi major axis: 6941 km
RCS: Unknown
Launch date: July 22, 2022
Source: United States (US)
Launch site: AIR FORCE WESTERN TEST RANGE (AFWTR)
Your satellite tracking list
Your tracking list is empty




NASA's NSSDC Master Catalog

Two Line Element Set (TLE):
1 53192U 22084D   24325.60867128  .00001373  00000-0  11143-3 0  9997
2 53192  97.6561  24.1899 0002557 223.6408 136.4615 15.01265893128561
Source of the keplerian elements: AFSPC